• In Belarus
  • List of Countries
  • For 7 days
  • Water Temperature
  • Satellite Maps
  • Weather Map
  • Weather Widgets
  • user-avatar
    Login

    Hourly Weather Ermolaevo

    Today, 23 September, Sunday

    Time Temperature Precipitation Wind Pressure Humidity
    00:00 +19°C° 0 mm 5 mps 743 mmHg 54%
    01:00 +19°C° 0 mm 5 mps 743 mmHg 56%
    02:00 +18°C° 0 mm 4 mps 743 mmHg 59%
    03:00 +16°C° 0.2 mm 5 mps 743 mmHg 66%
    04:00 +15°C° 0.2 mm 5 mps 743 mmHg 73%
    05:00 +13°C° 0.2 mm 6 mps 743 mmHg 80%
    06:00 +11°C° 0.7 mm 6 mps 743 mmHg 82%
    07:00 +10°C° 0.7 mm 6 mps 744 mmHg 84%
    08:00 +9°C° 0 mm 6 mps 744 mmHg 86%
    09:00 +9°C° 0.3 mm 5 mps 744 mmHg 84%
    10:00 +9°C° 0.3 mm 5 mps 745 mmHg 81%
    11:00 +11°C° 0.3 mm 4 mps 745 mmHg 79%
    12:00 +11°C° 0 mm 4 mps 745 mmHg 77%
    13:00 +12°C° 0 mm 4 mps 746 mmHg 75%
    14:00 +12°C° 0 mm 4 mps 746 mmHg 73%
    15:00 +12°C° 0 mm 3 mps 746 mmHg 73%
    16:00 +12°C° 0 mm 3 mps 745 mmHg 74%
    17:00 +13°C° 0 mm 2 mps 745 mmHg 74%
    18:00 +12°C° 0 mm 2 mps 745 mmHg 78%
    19:00 +10°C° 0 mm 3 mps 745 mmHg 81%
    20:00 +9°C° 0 mm 3 mps 746 mmHg 85%
    21:00 +9°C° 0 mm 3 mps 746 mmHg 86%
    22:00 +9°C° 0 mm 3 mps 746 mmHg 88%
    23:00 +8°C° 0 mm 3 mps 746 mmHg 89%

    Tomorrow, 24 September, Monday

    Time Temperature Precipitation Wind Pressure Humidity
    00:00 +8°C° 0 mm 3 mps 746 mmHg 90%
    01:00 +8°C° 0 mm 3 mps 746 mmHg 90%
    02:00 +8°C° 0 mm 3 mps 746 mmHg 90%
    03:00 +8°C° 0 mm 3 mps 745 mmHg 89%
    04:00 +8°C° 0 mm 3 mps 745 mmHg 88%
    05:00 +8°C° 0 mm 3 mps 745 mmHg 87%
    06:00 +9°C° 0 mm 3 mps 745 mmHg 83%
    07:00 +10°C° 0 mm 4 mps 745 mmHg 79%
    08:00 +10°C° 0 mm 4 mps 745 mmHg 75%
    09:00 +10°C° 0.3 mm 5 mps 744 mmHg 75%
    10:00 +10°C° 0.3 mm 6 mps 743 mmHg 75%
    11:00 +10°C° 0.3 mm 7 mps 743 mmHg 75%
    12:00 +10°C° 1 mm 8 mps 742 mmHg 78%
    13:00 +10°C° 1 mm 8 mps 741 mmHg 81%
    14:00 +10°C° 1 mm 9 mps 740 mmHg 83%
    15:00 +10°C° 2.1 mm 9 mps 739 mmHg 84%
    16:00 +10°C° 2.1 mm 9 mps 737 mmHg 85%
    17:00 +11°C° 2.1 mm 9 mps 736 mmHg 86%
    18:00 +11°C° 0.7 mm 9 mps 735 mmHg 86%
    19:00 +11°C° 0.7 mm 9 mps 735 mmHg 86%
    20:00 +11°C° 0.7 mm 9 mps 734 mmHg 86%
    21:00 +10°C° 0.1 mm 9 mps 734 mmHg 85%
    22:00 +8°C° 0.1 mm 9 mps 734 mmHg 84%
    23:00 +7°C° 0.1 mm 9 mps 734 mmHg 83%

    Day after tomorrow, 25 September, Tuesday

    Time Temperature Precipitation Wind Pressure Humidity
    00:00 +7°C° 0 mm 9 mps 734 mmHg 82%
    01:00 +7°C° 0 mm 9 mps 735 mmHg 81%
    02:00 +7°C° 0 mm 9 mps 735 mmHg 81%
    03:00 +7°C° 0 mm 9 mps 735 mmHg 81%
    04:00 +6°C° 0 mm 9 mps 736 mmHg 82%
    05:00 +6°C° 0 mm 9 mps 736 mmHg 82%
    06:00 +6°C° 0.1 mm 9 mps 737 mmHg 82%
    07:00 +7°C° 0.1 mm 8 mps 737 mmHg 81%
    08:00 +7°C° 0.1 mm 8 mps 738 mmHg 81%
    09:00 +7°C° 0.1 mm 8 mps 739 mmHg 79%
    10:00 +7°C° 0.1 mm 8 mps 740 mmHg 77%
    11:00 +7°C° 0.1 mm 8 mps 741 mmHg 75%
    12:00 +7°C° 0 mm 8 mps 741 mmHg 74%
    13:00 +6°C° 0 mm 8 mps 742 mmHg 73%
    14:00 +6°C° 0 mm 7 mps 743 mmHg 73%
    15:00 +6°C° 0 mm 7 mps 743 mmHg 72%
    16:00 +6°C° 0 mm 7 mps 744 mmHg 72%
    17:00 +5°C° 0 mm 6 mps 745 mmHg 72%
    18:00 +5°C° 0 mm 6 mps 745 mmHg 73%
    19:00 +6°C° 0 mm 5 mps 746 mmHg 74%
    20:00 +6°C° 0 mm 5 mps 747 mmHg 75%
    21:00 +6°C° 0 mm 5 mps 747 mmHg 75%
    22:00 +5°C° 0 mm 5 mps 747 mmHg 75%
    23:00 +5°C° 0 mm 5 mps 748 mmHg 76%

    26 September, Wednesday

    Time Temperature Precipitation Wind Pressure Humidity
    00:00 +3°C° 0 mm 5 mps 748 mmHg 78%
    01:00 +4°C° 0 mm 4 mps 749 mmHg 80%
    02:00 +3°C° 0 mm 4 mps 749 mmHg 82%
    03:00 +3°C° 0 mm 4 mps 750 mmHg 83%
    04:00 +1°C° 0 mm 4 mps 750 mmHg 84%
    05:00 +1°C° 0 mm 4 mps 751 mmHg 85%
    06:00 +3°C° 0 mm 4 mps 752 mmHg 80%
    07:00 +2°C° 0 mm 5 mps 752 mmHg 75%
    08:00 +3°C° 0 mm 5 mps 753 mmHg 69%
    09:00 +5°C° 0 mm 5 mps 753 mmHg 64%
    10:00 +6°C° 0 mm 5 mps 753 mmHg 59%
    11:00 +7°C° 0 mm 5 mps 754 mmHg 53%
    12:00 +8°C° 0 mm 4 mps 754 mmHg 51%
    13:00 +8°C° 0 mm 4 mps 754 mmHg 49%
    14:00 +10°C° 0 mm 4 mps 754 mmHg 47%
    15:00 +8°C° 0 mm 4 mps 754 mmHg 52%
    16:00 +8°C° 0 mm 3 mps 754 mmHg 57%
    17:00 +8°C° 0 mm 2 mps 754 mmHg 61%
    18:00 +7°C° 0 mm 2 mps 754 mmHg 65%
    19:00 +5°C° 0 mm 3 mps 754 mmHg 69%
    20:00 +4°C° 0 mm 3 mps 754 mmHg 73%
    21:00 +4°C° 0 mm 3 mps 754 mmHg 75%
    22:00 +4°C° 0 mm 4 mps 753 mmHg 76%
    23:00 +4°C° 0 mm 4 mps 753 mmHg 78%

    27 September, Thursday

    Time Temperature Precipitation Wind Pressure Humidity
    00:00 +3°C° 0 mm 5 mps 752 mmHg 75%
    01:00 +5°C° 0 mm 5 mps 752 mmHg 72%
    02:00 +4°C° 0 mm 6 mps 751 mmHg 69%
    03:00 +4°C° 0.1 mm 6 mps 751 mmHg 68%
    04:00 +4°C° 0.1 mm 7 mps 750 mmHg 68%
    05:00 +4°C° 0.1 mm 7 mps 749 mmHg 67%
    06:00 +4°C° 0.4 mm 8 mps 748 mmHg 69%
    07:00 +5°C° 0.4 mm 9 mps 748 mmHg 71%
    08:00 +5°C° 0.4 mm 9 mps 747 mmHg 73%
    09:00 +5°C° 0.3 mm 9 mps 747 mmHg 75%
    10:00 +5°C° 0.3 mm 10 mps 746 mmHg 76%
    11:00 +5°C° 0.3 mm 10 mps 746 mmHg 77%
    12:00 +6°C° 0.3 mm 9 mps 745 mmHg 80%
    13:00 +6°C° 0.3 mm 9 mps 745 mmHg 82%
    14:00 +6°C° 0.3 mm 9 mps 745 mmHg 84%
    15:00 +6°C° 0.1 mm 8 mps 745 mmHg 86%
    16:00 +8°C° 0.1 mm 7 mps 745 mmHg 87%
    17:00 +8°C° 0.1 mm 7 mps 745 mmHg 89%
    18:00 +8°C° 0 mm 6 mps 746 mmHg 90%
    19:00 +8°C° 0 mm 6 mps 746 mmHg 91%
    20:00 +9°C° 0 mm 5 mps 746 mmHg 92%
    21:00 +9°C° 0 mm 5 mps 746 mmHg 92%
    22:00 +9°C° 0 mm 5 mps 746 mmHg 93%
    23:00 +9°C° 0 mm 5 mps 746 mmHg 93%

    28 September, Friday

    Time Temperature Precipitation Wind Pressure Humidity
    00:00 +9°C° 0 mm 6 mps 746 mmHg 93%
    01:00 +9°C° 0 mm 6 mps 746 mmHg 93%
    02:00 +10°C° 0 mm 6 mps 746 mmHg 92%
    03:00 +10°C° 0.1 mm 6 mps 745 mmHg 92%
    04:00 +10°C° 0.1 mm 6 mps 745 mmHg 92%
    05:00 +10°C° 0.1 mm 6 mps 745 mmHg 92%
    06:00 +11°C° 0.1 mm 6 mps 745 mmHg 91%
    07:00 +11°C° 0.1 mm 7 mps 745 mmHg 90%
    08:00 +11°C° 0.1 mm 7 mps 745 mmHg 89%
    09:00 +12°C° 0 mm 7 mps 745 mmHg 87%
    10:00 +12°C° 0 mm 8 mps 745 mmHg 85%
    11:00 +13°C° 0 mm 8 mps 745 mmHg 83%
    12:00 +13°C° 0 mm 8 mps 744 mmHg 82%
    13:00 +13°C° 0 mm 8 mps 744 mmHg 82%
    14:00 +13°C° 0 mm 8 mps 743 mmHg 82%
    15:00 +13°C° 0 mm 8 mps 743 mmHg 82%
    16:00 +13°C° 0 mm 8 mps 743 mmHg 83%
    17:00 +15°C° 0 mm 7 mps 743 mmHg 83%
    18:00 +14°C° 0.2 mm 7 mps 744 mmHg 84%
    19:00 +14°C° 0.2 mm 6 mps 744 mmHg 85%
    20:00 +13°C° 0.2 mm 6 mps 745 mmHg 86%
    21:00 +12°C° 0 mm 5 mps 745 mmHg 87%
    22:00 +10°C° 0 mm 4 mps 746 mmHg 88%
    23:00 +8°C° 0 mm 3 mps 746 mmHg 90%
    Show more